Vorticity
3 3 2 2 2 3 2 4 4 4 3 2 3 4 8 6 8 10 7 3 6 9 6 2 4 4 6 6 6 6 6 7 5 2 1 2 3 4 4 4 6 6 6 6 6 6 8 6 4
3 3 3 6 8 8 10 8 6 2 2 5 2 3 3 2 3 4 6 6 5 10 8 7 5 4 2 5 5 5 5 6 6 7 7 6 4 4 4 5 5 6 6 7 6 6 5 5 4
3 4 8 7 8 10 11 6 5 6 6 6 3 2 1 1 4 5 9 6 6 6 7 7 7 5 5 4 6 7 5 5 5 5 6 6 7 6 5 4 5 7 6 6 5 5 5 5 5
7 8 8 7 10 10 8 6 5 5 9 6 4 4 4 2 3 1 -1 1 4 5 7 6 6 7 4 5 6 4 6 5 5 6 6 6 6 6 7 6 5 6 6 7 6 5 5 4 4
13 9 8 6 8 8 9 8 9 8 4 16 8 5 4 5 5 3 3 2 3 4 5 6 6 5 7 7 3 6 6 8 7 6 7 7 6 6 5 5 6 7 7 7 7 7 6 6 7
7 6 5 5 9 5 5 6 4 5 9 7 12 6 5 5 6 5 3 3 4 5 4 5 5 6 8 8 8 6 6 6 5 8 7 5 5 6 8 7 6 6 7 7 6 7 7 7 6
5 4 3 4 5 4 5 2 2 5 5 8 8 11 6 10 10 5 5 5 5 3 2 2 3 4 5 6 8 7 9 10 9 7 9 9 9 9 9 9 8 7 8 7 6 8 8 8 8
2 3 3 4 4 5 3 3 2 3 4 2 2 2 4 8 11 11 10 12 9 6 6 4 4 4 4 3 5 8 7 6 9 6 5 8 10 9 9 9 11 9 8 8 8 7 7 6 6
3 4 3 5 5 6 6 5 4 3 5 6 -0 3 2 2 3 5 6 6 8 11 8 6 4 4 3 3 3 3 5 6 8 11 12 8 7 7 8 9 8 9 8 8 6 6 5 5 4
3 3 3 3 3 6 6 3 4 3 4 6 6 5 4 2 3 5 3 3 5 5 7 9 8 7 5 5 4 4 5 3 4 8 9 8 6 7 6 5 6 9 9 7 7 5 4 2 2
3 3 2 4 3 6 5 6 5 3 4 -1 7 4 6 6 4 4 7 6 7 10 9 6 9 8 8 7 6 5 4 5 4 4 6 8 8 8 6 6 6 6 9 10 8 6 5 5 3
4 4 3 4 6 6 4 9 7 7 7 5 7 5 5 7 5 8 8 6 8 8 8 9 8 8 9 6 6 5 4 3 3 2 5 7 7 8 6 5 5 5 6 10 12 10 7 5 4
4 5 5 5 6 5 4 7 5 6 6 8 7 9 6 6 15 11 6 7 8 9 7 6 8 8 9 8 9 9 7 6 6 7 5 4 6 6 6 5 5 5 5 5 8 11 9 8 8
7 6 5 6 7 6 7 5 4 4 5 8 12 9 9 10 14 9 10 5 5 3 3 4 4 5 7 10 8 10 11 9 6 4 7 6 7 7 4 3 4 4 4 4 5 8 11 13 9
8 7 8 7 9 8 9 3 4 5 7 8 9 10 9 12 12 8 3 2 6 5 7 7 6 4 5 7 9 13 10 10 10 4 5 6 7 9 7 5 5 5 6 7 7 8 5 8 9
8 9 9 14 9 7 5 6 2 5 5 6 8 13 8 7 11 11 9 7 6 5 3 8 5 4 3 6 5 7 11 11 12 10 6 6 6 8 9 7 6 8 7 7 11 13 5 3 8
9 8 11 8 7 7 5 4 8 4 5 9 9 12 11 11 10 7 6 5 6 7 6 6 8 7 6 5 5 4 2 8 9 14 11 4 7 8 7 6 7 6 4 7 10 11 6 -1 10
11 8 8 7 6 7 8 7 6 5 8 9 9 8 7 7 3 6 8 8 7 5 7 5 2 14 7 7 4 4 3 4 3 9 11 9 4 4 7 7 8 7 8 6 7 7 5 10 11
10 11 7 9 10 8 11 11 4 7 7 5 6 6 4 3 5 3 3 4 4 4 3 4 7 5 11 8 5 5 5 4 5 4 8 11 9 4 4 5 3 7 6 8 7 10 6 6 12
11 10 12 10 14 8 11 12 5 7 3 6 4 4 4 3 3 3 3 4 4 4 4 3 2 4 4 12 5 6 5 3 4 8 2 3 11 6 1 6 7 4 2 9 7 4 19 14 10
13 10 10 5 13 14 11 11 11 6 7 4 9 7 6 5 4 4 4 3 2 2 2 2 1 -0 1 4 7 7 6 2 1 5 4 2 4 10 10 8 9 5 3 7 6 6 10 6 4
11 12 12 12 12 12 13 13 9 9 9 9 7 5 3 3 3 2 1 1 1 2 2 2 1 1 1 1 3 5 7 5 3 2 5 7 4 3 8 6 7 7 4 7 7 9 6 9 8
11 13 14 11 11 11 14 22 3 11 9 7 3 1 2 3 3 3 2 2 3 3 3 4 6 5 5 3 8 6 6 6 5 5 3 6 5 2 3 4 7 10 11 8 9 7 6 9 10
12 8 9 9 10 11 6 14 2 8 3 2 5 3 2 10 7 7 10 12 12 13 13 12 12 13 12 10 14 12 6 12 8 7 6 3 5 6 4 2 7 6 7 5 6 9 11 2 14
7 5 7 8 7 11 7 10 8 8 8 5 3 12 12 2 13 22 19 17 19 20 20 21 22 19 7 8 11 14 8 11 11 7 5 2 3 5 7 3 5 6 7 8 7 5 7 8 9
4 4 5 6 6 8 6 10 2 2 4 8 14 7 13 15 13 7 6 8 8 8 6 7 11 11 24 18 9 13 16 9 10 9 5 2 2 4 9 4 4 3 7 7 6 8 8 8 7
8 7 7 7 7 9 7 6 5 6 8 8 6 9 8 9 13 17 18 15 14 19 12 7 8 8 2 9 30 20 17 8 10 9 11 7 6 6 8 6 3 1 6 8 7 7 6 6 10
3 4 6 8 11 10 8 7 8 12 13 11 8 11 12 7 8 12 10 20 15 15 23 18 16 5 3 3 2 22 17 15 8 10 11 7 8 7 8 7 4 3 7 7 6 7 8 12 -1
6 7 8 7 7 9 12 6 14 7 5 11 13 11 18 15 19 16 12 8 17 17 11 17 21 16 10 8 5 1 20 17 10 10 9 7 9 7 9 8 5 6 7 5 18 4 3 -4 4
8 9 9 4 5 6 6 13 2 2 23 7 10 12 3 23 28 21 26 29 21 20 13 24 17 11 10 17 4 9 18 15 12 10 8 7 8 8 10 8 8 7 6 7 6 -1 10 0 9
Height
5818 5820 5822 5824 5830 5832 5837 5841 5839 5843 5844 5845 5848 5851 5853 5852 5854 5856 5860 5860 5860 5862 5863 5864 5864 5865 5866 5866 5867 5867 5867 5869 5869 5870 5871 5872 5872 5872 5872 5871 5871 5871 5871 5871 5871 5871 5871 5870 5870
5810 5813 5816 5817 5823 5827 5834 5833 5832 5834 5838 5842 5845 5845 5846 5843 5849 5851 5856 5856 5857 5859 5860 5861 5862 5863 5863 5863 5863 5863 5864 5865 5865 5866 5867 5867 5868 5868 5868 5868 5868 5868 5867 5867 5867 5868 5868 5867 5866
5804 5806 5810 5810 5816 5825 5830 5825 5826 5828 5833 5837 5838 5841 5839 5839 5848 5849 5853 5853 5853 5856 5857 5857 5858 5859 5859 5860 5860 5861 5861 5861 5861 5861 5862 5862 5863 5864 5864 5864 5864 5864 5864 5863 5863 5863 5863 5863 5863
5796 5799 5803 5805 5815 5820 5823 5819 5819 5823 5829 5831 5832 5836 5836 5837 5844 5842 5844 5850 5850 5851 5853 5854 5854 5855 5855 5856 5856 5857 5858 5858 5858 5858 5858 5858 5859 5859 5859 5860 5859 5859 5859 5859 5860 5859 5858 5859 5858
5790 5793 5797 5802 5811 5814 5818 5814 5814 5819 5823 5826 5828 5829 5830 5833 5839 5839 5840 5844 5847 5847 5848 5849 5850 5852 5852 5852 5853 5853 5854 5854 5854 5854 5854 5854 5855 5855 5855 5855 5855 5855 5855 5855 5855 5855 5855 5854 5854
5782 5786 5791 5799 5806 5808 5812 5809 5809 5814 5818 5820 5823 5822 5824 5829 5832 5835 5835 5840 5842 5843 5843 5845 5847 5848 5849 5849 5850 5850 5851 5851 5851 5851 5851 5851 5851 5851 5851 5851 5851 5851 5851 5851 5851 5851 5850 5850 5850
5776 5780 5786 5792 5800 5801 5806 5806 5805 5809 5812 5816 5819 5818 5818 5822 5828 5830 5830 5834 5836 5839 5840 5840 5842 5843 5844 5845 5845 5845 5846 5846 5847 5847 5847 5847 5847 5847 5847 5847 5847 5847 5847 5847 5846 5846 5847 5847 5846
5772 5773 5778 5785 5794 5799 5800 5800 5799 5803 5806 5810 5811 5813 5811 5819 5823 5824 5824 5828 5832 5834 5835 5836 5837 5838 5840 5840 5841 5841 5842 5842 5843 5843 5843 5843 5843 5843 5843 5843 5843 5843 5843 5842 5842 5842 5842 5842 5842
5764 5766 5772 5781 5786 5795 5794 5793 5792 5791 5801 5805 5805 5809 5806 5812 5817 5819 5819 5822 5826 5828 5829 5830 5832 5833 5834 5835 5836 5836 5837 5837 5838 5839 5839 5838 5838 5838 5838 5838 5838 5838 5837 5837 5837 5838 5838 5838 5837
5756 5761 5769 5777 5779 5783 5785 5785 5784 5786 5794 5799 5800 5803 5803 5803 5810 5813 5815 5814 5816 5822 5823 5824 5825 5827 5828 5829 5830 5831 5832 5832 5833 5833 5833 5833 5833 5833 5833 5833 5833 5832 5832 5832 5832 5832 5833 5833 5832
5750 5756 5762 5767 5770 5772 5776 5780 5778 5781 5788 5795 5795 5795 5796 5797 5802 5806 5808 5811 5810 5812 5816 5819 5820 5820 5821 5823 5823 5825 5825 5826 5827 5827 5828 5828 5828 5828 5828 5828 5828 5828 5828 5827 5827 5827 5827 5827 5827
5743 5749 5753 5759 5761 5764 5769 5775 5775 5778 5783 5786 5791 5788 5790 5793 5796 5799 5803 5804 5806 5806 5807 5812 5815 5816 5816 5817 5817 5818 5819 5820 5821 5821 5822 5823 5822 5823 5823 5823 5823 5823 5823 5822 5821 5821 5821 5821 5821
5734 5740 5745 5751 5754 5755 5763 5768 5768 5774 5776 5782 5783 5782 5783 5785 5792 5793 5795 5797 5800 5802 5803 5803 5808 5809 5811 5811 5811 5813 5813 5815 5814 5815 5816 5817 5817 5817 5818 5818 5818 5818 5818 5817 5816 5814 5814 5813 5813
5726 5731 5736 5743 5747 5749 5757 5761 5761 5766 5770 5773 5775 5775 5777 5779 5786 5787 5789 5791 5793 5796 5799 5800 5799 5801 5804 5806 5806 5806 5808 5808 5809 5810 5809 5810 5810 5811 5811 5811 5811 5812 5812 5811 5810 5809 5807 5807 5807
5719 5724 5731 5736 5741 5743 5748 5751 5753 5759 5761 5766 5769 5771 5771 5773 5778 5781 5783 5785 5789 5788 5790 5796 5796 5793 5797 5798 5799 5799 5800 5801 5802 5804 5804 5804 5804 5805 5805 5804 5804 5804 5805 5804 5803 5802 5801 5800 5800
5710 5715 5722 5728 5730 5736 5739 5746 5750 5750 5754 5757 5762 5765 5765 5767 5770 5774 5777 5780 5783 5784 5782 5784 5790 5789 5789 5791 5792 5790 5792 5793 5794 5797 5797 5798 5798 5798 5798 5797 5798 5798 5797 5797 5797 5795 5794 5793 5793
5704 5708 5713 5718 5721 5726 5732 5736 5742 5743 5748 5752 5756 5759 5760 5762 5764 5768 5771 5773 5775 5777 5777 5776 5778 5782 5783 5783 5784 5784 5787 5788 5787 5790 5791 5792 5792 5792 5790 5791 5792 5791 5790 5790 5789 5789 5788 5787 5786
5697 5699 5704 5709 5714 5718 5724 5728 5736 5737 5741 5746 5749 5751 5753 5756 5759 5761 5762 5763 5765 5766 5769 5769 5768 5771 5776 5777 5778 5776 5774 5779 5780 5783 5782 5785 5786 5785 5785 5784 5785 5784 5784 5782 5781 5781 5780 5780 5778
5688 5693 5698 5703 5707 5714 5719 5723 5728 5731 5735 5739 5741 5743 5745 5748 5750 5752 5754 5756 5758 5759 5759 5762 5763 5763 5765 5768 5771 5772 5769 5767 5771 5775 5775 5778 5780 5777 5776 5777 5778 5777 5776 5775 5774 5773 5772 5771 5770
5682 5687 5693 5696 5700 5706 5712 5718 5721 5724 5728 5731 5733 5736 5738 5739 5741 5743 5745 5747 5749 5751 5752 5752 5753 5754 5755 5759 5761 5763 5764 5760 5762 5766 5767 5770 5772 5770 5768 5770 5771 5770 5769 5768 5767 5766 5763 5763 5760
5676 5682 5686 5691 5695 5699 5705 5710 5715 5718 5721 5723 5725 5727 5729 5730 5732 5733 5734 5736 5738 5740 5741 5742 5743 5745 5746 5747 5751 5752 5754 5754 5755 5759 5759 5760 5762 5762 5761 5762 5762 5762 5761 5760 5759 5758 5756 5754 5753
5672 5677 5682 5687 5691 5695 5698 5703 5709 5711 5713 5715 5716 5718 5720 5721 5722 5724 5725 5725 5726 5728 5728 5729 5730 5732 5735 5737 5740 5743 5744 5745 5746 5750 5749 5751 5753 5754 5753 5754 5753 5753 5753 5752 5751 5750 5748 5746 5744
5669 5674 5678 5682 5686 5690 5693 5695 5706 5705 5706 5707 5709 5710 5709 5710 5710 5711 5712 5713 5714 5715 5715 5716 5715 5717 5720 5723 5728 5731 5732 5734 5736 5740 5740 5743 5744 5745 5746 5745 5744 5745 5744 5743 5742 5741 5739 5738 5735
5666 5670 5674 5679 5682 5686 5689 5691 5695 5699 5699 5698 5698 5697 5697 5697 5698 5698 5698 5699 5700 5699 5700 5700 5701 5703 5705 5708 5715 5719 5723 5725 5726 5729 5730 5732 5734 5735 5736 5737 5737 5737 5736 5735 5733 5732 5730 5728 5726
5664 5668 5671 5675 5678 5681 5684 5688 5692 5687 5686 5686 5685 5683 5682 5683 5683 5682 5682 5683 5683 5682 5682 5683 5686 5689 5689 5691 5698 5704 5709 5714 5716 5716 5719 5722 5724 5725 5727 5728 5728 5728 5727 5726 5725 5723 5721 5719 5716
5660 5664 5668 5669 5673 5675 5676 5681 5684 5679 5675 5675 5674 5673 5671 5670 5667 5666 5668 5668 5667 5666 5666 5667 5669 5671 5673 5677 5684 5691 5696 5700 5702 5703 5708 5713 5715 5715 5717 5718 5719 5718 5718 5717 5716 5714 5711 5709 5707
5657 5660 5663 5665 5666 5667 5669 5672 5673 5670 5666 5662 5660 5659 5656 5654 5652 5650 5650 5649 5648 5647 5647 5650 5654 5657 5661 5665 5670 5678 5685 5686 5688 5692 5697 5701 5704 5707 5709 5709 5710 5709 5709 5708 5706 5704 5701 5698 5696
5652 5656 5659 5659 5659 5660 5661 5662 5662 5659 5656 5653 5649 5644 5638 5634 5631 5631 5632 5630 5627 5626 5629 5633 5636 5639 5645 5653 5659 5664 5669 5672 5675 5680 5686 5690 5694 5697 5698 5700 5701 5701 5700 5699 5697 5694 5692 5689 5686
5649 5651 5652 5654 5654 5653 5654 5655 5654 5650 5647 5643 5638 5632 5625 5619 5612 5608 5606 5607 5609 5608 5610 5615 5619 5623 5630 5638 5646 5652 5656 5661 5666 5671 5676 5680 5684 5687 5689 5691 5692 5692 5691 5690 5688 5686 5682 5679 5675
5645 5647 5648 5648 5648 5648 5645 5650 5647 5643 5639 5635 5630 5624 5614 5605 5597 5592 5589 5587 5588 5591 5595 5598 5603 5609 5618 5625 5631 5638 5643 5650 5656 5662 5666 5671 5675 5679 5681 5682 5684 5684 5683 5682 5679 5677 5671 5667 5664